METEOR 2-11 DEB, 60008

Orbit data source: Space-Track

METEOR 2-11 DEB, 60008 is space debris in LEO originally from a launch on Thu, 05 Jul 1984 UTC launched from the Plesetsk Missile And Space Complex (PKMTR). Debris objects in space refer to the collection of defunct objects orbiting the Earth. Examples of debris include non-operational satellites, rocket bodies, and fragments generated from explosions, collisions, or faulty payload assembly.

Loading next visibility...
Identifier
60008, 1984-072AD
Orbit
LEO
Country
Flag of CISCIS
Related business
Manufacturer
Unknown
Mission
Spacecraft
Bus & Motor
Unknown
Mass
Unknown
Launch date (UTC)
1984-07-05 (41 years ago)
Launch vehicle
Unknown
Launch site
Plesetsk Missile And Space Complex (PKMTR)
Object type
Payload
Rocket body
Debris
Shape & HBR
Unknown shape, 0.1 m
Radar Cross Section
Small (<0.1 m²)

Expand to show TLE details & history
Last TLE update: 23 hours ago

TLE from 23 hours ago
0 METEOR 2-11 DEB
1 60008U 84072AD  25310.85317522  .00003789  00000-0  22564-2 0  9997
2 60008  82.5083 146.8482 0033855 136.6064 223.7784 14.06838428602897
Epoch: 2025-11-06T20:28Z
TLE epoch observation values (Epoch: 2025-11-06T20:28:34.339Z)
Latitude
0.00006°
Longitude
153.39959°
Altitude
890.905 km
Speed
7.398 km/s
True Right ascension
09h 47m 23s
True Declination
0° 00' 00"
Sunlit
Object was in daylight at epoch
Visualization orbit readout
Latitude
Unknown
Longitude
Unknown
Altitude
Unknown
Speed
Unknown
Apparent Right ascension
Unknown
Apparent Declination
Unknown
Sunlit
N/A
Visualization observer readout
Local Sidereal Time
15:17:13
Azimuth
Unknown
Elevation
Unknown
Doppler factor
Unknown
Orbital elements
Apogee altitude
891.863 km
Perigee altitude
842.803 km
Semi-major axis
7,245.47 km
Eccentricity
0.00339
Inclination
82.5083°
RAAN
146.8482°
Arg. of periapsis
136.6064°
True anomaly
223.51081°
Mean anomaly
223.7784°
Eccentric anomaly
223.64452°
Mean motion
3.51919 °/min
Orbital period
102.3 mins
BSTAR
0.0022564
Loading maneuver chart data...
Computing Atmospheric mass density...
Loading historical data...
Loading historical data...
Loading historical data...
Loading historical data...
Loading historical data...
Loading historical data...
Loading historical data...

Documentation

Showing up to 5 results
|